Temperature
21 21 21 21 21 20 20 20 20 20 19 19 19 19 19 19 18 18 18 18 18 18 18 18 18 18 18 18 18 18 18 18 18 18 18 18 18 18 18 18 18 18 17
21 21 21 21 21 21 21 20 20 20 20 19 19 19 19 19 18 18 18 18 18 18 18 18 18 18 18 18 18 18 18 18 17 17 17 17 17 18 18 18 18 18 17
22 22 21 21 21 21 21 20 20 20 20 20 19 19 19 19 19 19 18 18 18 18 18 18 18 18 18 18 18 18 18 17 17 17 17 17 17 17 17 17 17 17 17
22 22 22 21 21 21 21 20 20 20 20 20 19 19 19 19 19 18 18 18 18 18 18 18 18 18 18 18 18 18 18 17 17 17 17 17 17 17 17 17 17 17 17
22 22 22 21 21 21 21 20 20 20 20 20 19 19 19 19 19 19 18 18 18 18 18 18 18 18 18 18 18 17 17 17 17 17 17 17 17 17 17 17 17 17 17
22 22 22 21 21 21 21 20 20 20 20 20 20 19 19 19 19 19 18 18 18 18 18 18 18 17 17 17 17 17 17 17 17 17 17 17 17 17 17 16 16 17 17
22 22 22 21 21 21 21 21 20 20 20 20 19 19 19 19 19 18 18 18 18 18 18 18 17 17 17 17 17 17 17 17 17 17 17 17 16 16 16 16 16 16 16
22 22 22 22 21 21 21 21 21 20 20 20 20 19 19 19 19 18 18 18 18 18 18 17 17 17 17 17 17 17 17 17 17 16 16 16 16 16 16 16 16 15 15
22 22 22 22 22 21 21 21 21 20 20 20 19 19 19 19 18 18 18 18 18 17 17 17 17 17 17 17 16 16 16 16 16 16 16 16 16 16 16 15 15 15 14
22 22 22 22 22 22 21 21 20 20 20 20 19 19 19 19 18 18 18 18 17 17 17 17 17 17 17 17 16 16 16 16 16 16 16 16 16 16 16 15 15 15 14
22 22 22 22 22 21 21 20 20 20 20 20 19 19 19 19 18 18 18 18 17 17 17 17 17 17 17 16 16 16 16 16 16 16 16 16 15 15 15 15 15 15 14
22 22 22 22 21 21 21 20 20 20 20 19 19 19 19 18 18 18 18 17 17 17 17 17 16 16 16 16 16 16 16 15 15 15 15 15 15 15 15 15 15 15 14
21 21 21 21 21 21 20 20 20 20 19 19 19 19 18 18 18 18 17 17 17 17 16 16 16 16 16 16 16 15 15 15 15 15 15 15 14 14 14 14 14 14 14
21 21 20 20 21 20 20 20 20 19 19 19 19 19 18 18 18 17 17 17 17 16 16 16 16 16 16 15 15 15 15 15 15 14 14 14 14 14 14 14 14 14 14
20 20 20 20 20 20 20 20 19 19 19 19 18 18 18 18 17 17 17 17 16 16 16 16 16 15 15 15 15 15 14 14 14 14 14 14 14 14 14 14 14 14 13
20 20 20 20 20 20 20 19 19 19 18 18 18 18 17 17 17 17 17 16 16 16 16 15 15 15 15 15 15 14 14 14 14 14 14 14 14 14 14 13 13 13 13
20 20 20 20 19 19 19 19 18 18 18 18 17 17 17 17 16 16 16 16 16 16 15 15 15 15 15 15 14 14 14 14 14 14 14 14 14 14 13 13 13 13 13
19 19 19 19 19 18 18 18 18 18 17 17 17 17 16 16 16 16 16 16 15 15 15 15 15 15 15 14 14 14 14 14 14 13 13 13 13 13 13 13 13 13 13
19 19 19 19 18 18 18 17 17 17 17 17 17 16 16 16 16 16 15 15 15 15 15 15 15 15 14 14 14 14 14 14 13 13 13 13 13 13 13 13 13 13 13
19 19 18 18 18 17 17 17 17 17 17 16 16 16 16 16 15 15 15 15 15 14 14 14 14 14 14 14 13 13 13 13 13 13 13 13 13 13 13 13 13 13 12
18 18 18 18 17 17 17 16 16 16 16 16 16 15 15 15 15 15 15 14 14 14 14 14 14 14 14 13 13 13 13 13 13 13 13 12 12 12 12 12 12 12 12
18 18 18 17 17 16 16 16 16 16 15 15 15 15 15 15 14 14 14 14 14 14 14 14 13 13 13 13 13 13 13 12 12 12 12 12 12 12 12 12 12 12 12
17 17 17 17 16 16 16 16 15 15 15 15 15 15 14 14 14 14 14 13 13 13 13 13 13 13 13 13 12 12 12 12 12 12 12 12 12 12 12 12 12 11 11
17 17 16 16 16 16 15 15 15 15 15 14 14 14 14 14 13 13 13 13 13 13 12 12 12 12 12 12 12 12 12 12 12 12 12 12 12 11 11 11 11 11 11
16 16 16 16 15 15 15 15 14 14 14 14 14 14 13 13 13 13 13 13 12 12 12 12 12 12 12 12 12 12 12 11 11 11 12 12 11 11 11 11 11 11 11
16 16 15 15 15 15 14 14 14 14 14 14 13 13 13 13 12 12 12 12 12 12 12 11 11 11 11 11 11 11 11 11 11 11 11 11 11 11 11 11 11 11 11
Wind_Speed
3 3 3 3 3 2 2 2 2 1 2 2 1 1 0 1 2 2 2 3 2 2 2 2 2 2 2 2 2 1 2 2 1 1 2 3 2 2 1 1 1 1 2
3 3 3 3 4 4 3 2 2 1 1 1 1 1 1 0 1 1 2 2 2 2 2 2 2 2 2 2 2 2 1 1 2 1 1 2 3 2 2 1 1 1 1
6 5 5 4 4 4 4 4 3 2 2 2 2 2 2 2 2 2 2 2 2 2 2 2 2 2 2 1 1 2 2 1 1 1 1 1 1 2 2 2 1 1 1
5 5 5 5 5 5 4 3 3 2 2 3 3 3 2 1 1 1 1 2 3 2 2 2 2 1 1 1 0 1 1 1 0 1 1 1 2 1 2 2 2 2 2
7 6 6 6 5 4 4 3 3 2 3 3 3 3 2 1 0 1 2 2 3 3 2 2 2 2 1 1 1 1 1 1 1 0 0 0 1 1 1 2 3 3 2
6 6 5 4 4 4 3 3 3 3 3 3 3 4 3 2 1 1 1 1 2 2 3 2 2 1 1 1 1 1 1 1 1 1 1 1 1 1 1 2 2 3 3
6 6 5 5 5 4 4 4 4 4 3 3 3 4 4 3 3 2 1 0 0 1 1 2 2 1 1 1 1 1 1 1 1 0 0 0 0 1 1 1 1 2 2
5 6 7 6 6 6 5 5 5 5 4 4 4 3 3 3 2 2 2 1 1 1 1 0 1 1 1 1 1 1 0 1 1 1 1 0 0 0 1 1 1 1 2
5 6 6 6 6 6 6 6 5 4 3 4 4 3 3 3 3 2 2 1 1 1 1 0 1 1 1 1 1 1 1 1 1 1 1 0 1 0 1 1 1 1 1
3 4 5 5 5 5 5 5 5 5 4 4 4 4 3 3 3 2 2 2 1 1 1 0 1 1 1 0 1 0 1 1 1 1 1 1 1 0 0 1 1 1 2
3 3 3 3 3 2 3 3 3 3 3 3 3 2 2 2 2 2 2 2 1 1 1 1 1 0 1 0 0 0 0 1 1 1 1 1 1 1 1 0 1 1 2
2 2 2 2 2 2 2 3 3 3 3 3 3 2 2 2 2 2 2 2 2 2 1 1 0 1 1 0 1 1 1 0 1 1 1 2 1 1 1 1 1 1 2
4 3 3 2 2 1 1 1 2 2 2 2 3 2 2 2 2 2 2 2 2 2 1 1 1 1 1 1 1 1 1 1 1 1 1 2 1 2 1 1 1 1 1
4 3 3 2 2 1 1 1 0 0 1 2 2 2 2 3 3 2 2 2 2 2 2 1 1 1 1 1 1 1 1 1 1 1 2 2 2 2 2 1 2 1 1
3 3 2 1 1 2 1 1 1 1 1 1 1 1 2 1 1 0 1 1 1 2 2 1 1 1 1 1 2 1 1 1 1 2 2 2 2 2 2 1 2 1 1
3 2 2 2 2 1 1 2 2 2 2 2 1 1 1 1 1 1 0 1 1 1 1 1 1 2 2 1 1 1 1 1 1 3 3 3 3 3 3 3 2 2 2
3 3 3 2 2 1 1 1 1 2 2 2 1 1 1 1 0 0 1 0 0 0 0 1 1 2 2 1 1 2 2 2 2 2 3 3 3 3 3 3 3 3 3
3 2 2 2 2 2 1 2 2 3 2 2 1 1 1 1 0 1 0 0 0 0 0 1 1 1 2 2 2 1 1 2 2 3 3 3 4 3 2 2 3 4 4
3 3 3 3 2 2 2 3 3 3 3 2 1 0 0 0 1 0 1 1 1 0 1 1 1 1 3 2 1 0 1 1 3 3 3 3 3 4 2 1 3 5 5
4 4 4 4 3 2 2 3 2 2 2 1 1 1 0 0 1 1 1 1 1 1 1 1 1 2 3 3 2 1 0 1 3 3 3 3 3 4 2 2 2 4 6
4 4 5 4 2 2 3 3 2 1 2 2 2 2 1 0 0 0 0 1 0 0 0 1 2 2 3 3 3 2 1 2 2 3 3 3 3 4 4 3 3 6 6
4 4 5 4 3 2 3 2 1 2 2 2 2 2 2 1 1 0 0 0 1 1 1 1 2 2 2 3 3 3 3 3 2 3 3 3 5 5 5 4 5 6 5
4 3 4 3 2 2 2 2 1 1 2 2 2 2 3 2 2 1 0 0 0 1 1 1 2 3 3 3 4 4 3 3 2 3 4 5 5 5 4 4 5 4 2
3 3 4 3 1 1 2 1 1 1 2 2 2 2 2 2 2 1 0 0 1 1 2 2 2 3 3 3 3 2 2 2 2 3 4 5 5 4 4 4 3 2 2
3 3 3 2 1 1 2 2 1 2 2 1 2 2 2 1 2 2 1 1 2 3 3 3 2 3 4 5 4 2 2 2 2 2 2 3 3 3 3 3 3 3 2
3 3 2 1 1 1 1 2 1 1 1 1 1 1 1 1 1 1 2 2 2 3 3 4 3 3 5 5 3 4 4 3 1 1 1 2 3 4 4 4 4 3 3
Wind_Direction
209 184 174 156 146 144 137 140 122 103 96 87 99 84 25 9 16 13 20 33 44 63 88 80 68 71 79 75 72 65 59 38 31 46 11 9 24 21 357 343 338 301 273
196 188 179 167 169 172 171 168 167 149 136 144 144 140 126 60 22 2 16 28 41 47 80 81 79 76 80 65 67 78 66 31 41 74 48 2 354 0 13 8 336 308 304
202 195 191 193 184 189 191 190 188 168 147 127 100 78 53 33 25 21 13 9 34 45 62 88 95 87 99 101 78 96 105 69 21 59 115 117 282 318 334 349 352 330 317
195 193 194 197 199 208 196 191 183 167 162 142 133 129 127 134 290 345 6 6 23 39 49 70 87 80 91 112 129 111 113 130 65 23 79 169 176 213 319 328 336 331 317
192 192 197 198 201 200 194 196 186 183 177 163 160 155 152 167 43 34 27 18 16 28 36 56 68 58 53 50 59 76 94 140 164 186 184 142 95 148 196 299 324 333 322
196 198 198 192 195 195 192 189 188 206 192 174 168 168 169 160 124 59 32 10 14 19 25 52 49 33 27 27 52 76 103 121 141 143 151 159 157 200 193 240 292 310 314
197 196 195 197 198 199 197 191 191 214 205 186 190 192 189 180 181 191 200 232 357 358 358 28 31 8 359 23 45 67 43 50 80 106 204 184 217 173 177 195 266 295 308
197 204 203 200 199 202 202 196 199 215 210 198 208 206 194 188 199 203 196 205 221 241 280 15 1 347 1 32 51 60 20 43 22 357 18 37 333 166 173 182 189 296 312
196 204 199 198 198 201 203 199 202 211 212 207 208 209 201 195 204 206 197 209 225 232 237 304 336 335 350 12 68 56 4 47 16 346 355 357 331 357 218 196 179 193 276
178 186 191 197 198 199 201 192 195 204 208 205 210 208 206 204 202 192 205 213 223 239 252 288 299 337 342 358 83 42 351 34 351 349 26 336 300 285 233 194 189 189 206
176 171 180 188 176 164 172 187 196 200 204 202 197 192 192 189 186 194 215 216 216 214 235 251 260 277 296 295 125 266 340 43 358 354 12 330 332 326 310 219 189 195 196
142 134 136 120 118 140 169 186 195 199 208 196 183 190 188 175 186 203 213 193 197 201 208 217 204 254 271 259 199 243 267 218 283 306 341 319 336 343 316 279 248 234 216
97 84 83 94 109 121 147 182 197 205 200 172 173 184 201 198 207 214 202 184 186 183 189 182 188 226 237 236 232 218 231 231 248 265 270 285 302 316 314 301 279 266 244
107 96 84 77 94 97 103 100 44 137 175 167 175 194 221 217 217 214 194 184 183 186 204 211 211 213 214 215 216 198 220 252 281 281 267 266 259 265 277 287 279 274 271
117 119 121 112 74 64 55 60 47 42 83 115 138 223 247 235 195 205 181 164 181 209 210 206 225 232 218 220 199 206 230 253 293 301 291 279 270 250 252 270 265 249 257
149 143 128 111 98 85 71 69 58 46 76 90 76 358 30 62 76 62 86 142 141 201 194 215 235 247 258 243 185 187 228 255 274 294 304 301 302 293 285 276 262 231 227
158 147 143 137 135 132 121 112 96 81 75 70 53 44 60 75 82 109 79 114 200 112 341 264 251 263 265 264 254 232 221 244 263 279 299 307 314 309 305 311 305 290 263
149 143 133 118 107 89 78 88 85 80 74 66 61 67 103 128 139 130 169 238 119 172 262 294 279 279 291 291 278 280 261 270 281 281 277 283 299 301 295 303 315 309 295
142 138 125 115 104 99 106 94 76 77 77 62 30 341 143 195 189 193 241 217 177 207 283 293 285 281 291 298 294 10 313 302 297 295 290 280 288 301 298 294 302 308 308
105 103 92 89 90 84 96 92 73 60 44 3 334 334 356 201 227 230 228 222 193 229 266 291 287 276 280 289 272 195 240 302 305 308 304 294 288 301 299 264 277 291 295
105 99 96 96 96 96 100 92 64 8 331 349 12 18 30 14 238 224 228 183 171 182 287 301 305 289 285 294 280 253 229 250 281 295 301 299 301 296 292 276 266 268 279
103 101 99 89 78 91 105 90 31 333 353 15 29 26 21 7 12 57 348 131 161 183 262 299 313 308 304 295 288 275 253 241 250 273 285 291 297 294 291 285 276 278 286
114 104 105 98 68 75 106 93 338 359 33 34 28 23 18 14 8 351 307 333 188 216 258 257 277 294 301 298 292 285 274 256 254 276 286 297 305 306 299 289 287 286 278
108 105 102 94 56 19 43 51 353 37 59 45 23 16 19 4 1 354 327 226 235 238 248 252 265 281 295 299 298 295 289 288 293 303 314 317 318 308 300 304 304 289 274
110 110 114 118 113 30 17 13 22 60 58 35 13 8 2 352 345 333 298 257 247 233 236 247 246 262 282 285 273 259 274 269 272 299 335 344 337 332 323 315 308 303 304
120 113 111 109 60 52 12 356 7 65 99 28 338 334 329 333 332 333 342 337 280 282 261 247 240 261 267 286 297 294 290 280 251 119 319 310 309 305 306 307 308 303 297
Height
1512 1514 1515 1515 1516 1516 1516 1516 1516 1516 1516 1516 1516 1516 1516 1516 1517 1517 1516 1516 1516 1516 1516 1515 1515 1515 1514 1514 1514 1514 1514 1514 1514 1514 1513 1513 1513 1513 1513 1513 1513 1513 1513
1511 1513 1514 1515 1515 1516 1516 1516 1516 1516 1517 1517 1517 1517 1517 1517 1517 1517 1517 1517 1516 1516 1516 1516 1515 1515 1515 1515 1515 1515 1515 1515 1514 1514 1514 1513 1514 1513 1513 1513 1513 1513 1512
1509 1511 1513 1514 1515 1515 1516 1516 1516 1517 1517 1517 1517 1517 1517 1517 1517 1517 1517 1517 1517 1516 1516 1516 1516 1516 1516 1515 1515 1515 1515 1515 1515 1514 1515 1514 1513 1513 1513 1512 1512 1512 1511
1508 1510 1511 1513 1514 1515 1516 1516 1516 1517 1517 1517 1517 1517 1517 1517 1517 1517 1517 1517 1517 1517 1516 1516 1516 1516 1516 1515 1515 1515 1515 1514 1514 1514 1514 1514 1513 1513 1512 1512 1511 1511 1510
1506 1508 1510 1511 1513 1514 1515 1515 1516 1516 1517 1517 1517 1517 1517 1517 1517 1517 1517 1517 1517 1517 1516 1516 1516 1516 1515 1515 1515 1515 1514 1514 1514 1513 1513 1513 1512 1512 1511 1510 1510 1510 1509
1504 1506 1508 1510 1511 1513 1514 1514 1515 1515 1516 1516 1517 1517 1517 1517 1517 1517 1517 1517 1517 1517 1516 1516 1516 1515 1515 1514 1514 1514 1514 1514 1513 1513 1512 1512 1511 1511 1510 1509 1508 1508 1507
1502 1504 1506 1507 1509 1511 1512 1513 1514 1514 1515 1515 1516 1516 1516 1516 1516 1516 1516 1516 1516 1516 1516 1516 1515 1515 1514 1514 1513 1513 1513 1513 1512 1511 1511 1511 1510 1510 1509 1508 1507 1506 1505
1500 1501 1503 1505 1507 1508 1510 1511 1512 1512 1513 1514 1514 1515 1515 1515 1515 1516 1515 1515 1515 1515 1515 1515 1515 1514 1514 1513 1513 1512 1512 1511 1511 1510 1510 1509 1509 1508 1507 1507 1506 1504 1503
1497 1499 1501 1503 1504 1506 1507 1509 1510 1511 1512 1512 1513 1513 1514 1514 1514 1515 1515 1514 1514 1514 1514 1514 1513 1513 1513 1512 1512 1511 1510 1510 1509 1509 1508 1508 1507 1507 1506 1505 1504 1504 1502
1497 1498 1500 1501 1503 1504 1506 1507 1508 1509 1510 1511 1511 1512 1512 1512 1513 1513 1513 1513 1513 1513 1513 1512 1512 1512 1511 1511 1510 1510 1509 1508 1508 1507 1506 1506 1505 1505 1504 1503 1502 1502 1501
1496 1497 1499 1500 1502 1503 1505 1506 1507 1508 1508 1509 1509 1510 1510 1511 1511 1511 1511 1512 1511 1511 1511 1511 1510 1510 1510 1509 1508 1508 1507 1506 1506 1505 1504 1504 1503 1502 1502 1501 1500 1500 1499
1496 1497 1498 1500 1501 1503 1504 1505 1506 1506 1507 1508 1508 1508 1508 1509 1509 1509 1509 1510 1510 1510 1510 1509 1509 1508 1508 1507 1506 1506 1505 1504 1504 1503 1502 1502 1501 1500 1500 1499 1498 1497 1496
1496 1498 1499 1499 1501 1502 1503 1504 1505 1505 1506 1506 1507 1506 1507 1507 1507 1507 1507 1507 1507 1507 1508 1507 1507 1507 1506 1506 1505 1504 1503 1502 1502 1501 1501 1500 1499 1498 1498 1497 1496 1495 1494
1496 1497 1499 1500 1501 1502 1503 1503 1504 1504 1504 1504 1505 1505 1505 1505 1505 1505 1505 1505 1505 1505 1505 1505 1505 1505 1505 1504 1503 1502 1501 1500 1500 1499 1499 1498 1497 1496 1496 1495 1494 1493 1492
1496 1497 1498 1500 1501 1502 1502 1502 1502 1502 1503 1503 1503 1503 1503 1503 1503 1503 1502 1503 1503 1503 1503 1503 1503 1503 1502 1502 1501 1500 1499 1498 1497 1497 1497 1496 1495 1494 1494 1492 1491 1490 1489
1496 1497 1498 1499 1501 1501 1502 1501 1502 1502 1502 1501 1501 1502 1501 1501 1501 1500 1500 1500 1500 1500 1501 1501 1501 1501 1500 1500 1499 1498 1497 1497 1496 1495 1494 1494 1493 1492 1491 1490 1489 1488 1487
1496 1497 1498 1499 1500 1501 1501 1501 1501 1501 1501 1501 1500 1500 1500 1500 1499 1499 1499 1498 1498 1499 1499 1499 1499 1498 1498 1498 1497 1497 1496 1495 1494 1493 1492 1491 1490 1490 1489 1488 1487 1486 1484
1496 1497 1498 1499 1500 1501 1501 1501 1501 1500 1500 1499 1499 1499 1498 1498 1497 1497 1497 1497 1497 1497 1497 1497 1497 1496 1496 1496 1495 1494 1493 1492 1491 1490 1490 1489 1488 1487 1486 1485 1484 1483 1482
1495 1497 1498 1498 1499 1500 1500 1500 1500 1499 1498 1498 1497 1497 1496 1496 1495 1495 1495 1495 1495 1495 1495 1495 1494 1494 1493 1493 1493 1492 1491 1490 1489 1488 1487 1486 1485 1484 1483 1482 1480 1479 1478
1495 1496 1497 1498 1499 1500 1500 1499 1499 1498 1497 1496 1496 1495 1495 1495 1494 1493 1493 1493 1493 1493 1493 1493 1492 1491 1491 1491 1491 1490 1489 1487 1486 1485 1484 1483 1482 1481 1480 1479 1477 1476 1474
1494 1496 1497 1497 1498 1498 1498 1498 1498 1497 1496 1496 1495 1494 1494 1493 1492 1492 1491 1491 1490 1490 1490 1490 1489 1489 1488 1488 1488 1487 1486 1485 1483 1482 1481 1480 1479 1478 1477 1476 1474 1473 1472
1494 1495 1495 1496 1497 1497 1497 1497 1496 1496 1495 1494 1493 1493 1492 1492 1491 1490 1489 1489 1488 1488 1487 1487 1487 1486 1486 1485 1484 1484 1483 1482 1480 1479 1478 1477 1476 1475 1474 1472 1471 1470 1469
1494 1495 1495 1495 1496 1496 1496 1495 1495 1494 1494 1493 1492 1491 1491 1490 1489 1488 1487 1487 1486 1486 1485 1484 1483 1483 1483 1482 1481 1481 1480 1479 1478 1476 1475 1474 1473 1472 1470 1469 1468 1467 1465
1493 1494 1495 1495 1495 1495 1495 1494 1494 1494 1493 1492 1491 1490 1490 1489 1488 1487 1486 1485 1484 1483 1482 1481 1480 1479 1479 1479 1478 1478 1477 1476 1475 1474 1473 1471 1470 1469 1467 1466 1465 1463 1462
1493 1494 1494 1494 1494 1494 1494 1494 1493 1493 1492 1491 1490 1489 1488 1487 1486 1485 1484 1483 1482 1481 1480 1479 1478 1477 1476 1476 1476 1475 1474 1473 1472 1471 1469 1468 1467 1465 1464 1463 1462 1460 1459
1492 1493 1493 1494 1494 1493 1493 1493 1492 1492 1491 1490 1489 1488 1487 1485 1484 1483 1482 1481 1481 1479 1478 1477 1476 1475 1474 1474 1473 1472 1471 1470 1469 1467 1466 1465 1464 1463 1461 1460 1458 1457 1455